Time,TemperatureF,DewpointF,PressureIn,WindDirection,WindDirectionDegrees,WindSpeedMPH,WindSpeedGustMPH,Humidity,HourlyPrecipIn,Conditions,Clouds,dailyrainin,SoftwareType,DateUTC
2013-02-14 00:02:00,42.0,39.0,30.07,SW,235,1.0,4.0,88,0.00,,,0.00,,2013-02-14 06:02:00,
2013-02-14 00:11:00,41.0,38.0,30.07,SW,234,1.0,4.0,90,0.00,,,0.00,,2013-02-14 06:11:00,
2013-02-14 00:21:00,41.0,38.0,30.07,SW,234,1.0,4.0,90,0.00,,,0.00,,2013-02-14 06:21:00,
2013-02-14 00:32:00,41.0,38.0,30.06,WSW,237,2.0,3.0,90,0.00,,,0.00,,2013-02-14 06:32:00,
2013-02-14 00:42:00,41.0,38.0,30.06,WSW,237,2.0,3.0,90,0.00,,,0.00,,2013-02-14 06:42:00,
2013-02-14 00:51:00,40.0,37.0,30.07,WNW,296,1.0,5.0,90,0.00,,,0.00,,2013-02-14 06:51:00,
2013-02-14 01:01:00,40.0,37.0,30.07,West,280,2.0,5.0,90,0.00,,,0.00,,2013-02-14 07:01:00,
2013-02-14 01:11:00,40.0,37.0,30.07,West,280,2.0,5.0,90,0.00,,,0.00,,2013-02-14 07:11:00,
2013-02-14 01:21:00,41.0,38.0,30.07,West,265,2.0,3.0,89,0.00,,,0.00,,2013-02-14 07:21:00,
2013-02-14 01:32:00,41.0,38.0,30.07,WSW,242,1.0,5.0,88,0.00,,,0.00,,2013-02-14 07:32:00,
2013-02-14 01:41:00,41.0,38.0,30.07,WSW,242,1.0,5.0,88,0.00,,,0.00,,2013-02-14 07:41:00,
2013-02-14 01:51:00,40.0,37.0,30.07,WNW,282,1.0,3.0,90,0.00,,,0.00,,2013-02-14 07:51:00,
2013-02-14 02:01:00,39.0,37.0,30.06,WNW,282,2.0,3.0,92,0.00,,,0.00,,2013-02-14 08:01:00,
2013-02-14 02:11:00,39.0,37.0,30.06,WNW,282,2.0,3.0,92,0.00,,,0.00,,2013-02-14 08:11:00,
2013-02-14 02:21:00,39.0,37.0,30.06,WNW,282,1.0,2.0,92,0.00,,,0.00,,2013-02-14 08:21:00,
2013-02-14 02:32:00,39.0,37.0,30.06,WNW,284,2.0,4.0,92,0.00,,,0.00,,2013-02-14 08:32:00,
2013-02-14 02:43:00,39.0,37.0,30.06,WNW,284,2.0,4.0,92,0.00,,,0.00,,2013-02-14 08:43:00,
2013-02-14 02:52:00,38.0,36.0,30.06,WNW,289,2.0,3.0,92,0.00,,,0.00,,2013-02-14 08:52:00,
2013-02-14 03:02:00,38.0,36.0,30.06,WNW,289,0.0,3.0,92,0.00,,,0.00,,2013-02-14 09:02:00,
2013-02-14 03:11:00,38.0,36.0,30.06,WNW,289,0.0,3.0,92,0.00,,,0.00,,2013-02-14 09:11:00,
2013-02-14 03:21:00,38.0,36.0,30.06,WNW,289,1.0,2.0,92,0.00,,,0.00,,2013-02-14 09:21:00,
2013-02-14 03:31:00,39.0,37.0,30.06,WNW,289,0.0,2.0,91,0.00,,,0.00,,2013-02-14 09:31:00,
2013-02-14 03:42:00,39.0,37.0,30.06,WNW,289,0.0,2.0,91,0.00,,,0.00,,2013-02-14 09:42:00,
2013-02-14 03:51:00,38.0,36.0,30.06,WNW,289,0.0,0.0,92,0.00,,,0.00,,2013-02-14 09:51:00,
2013-02-14 04:02:00,38.0,36.0,30.07,WNW,288,0.0,2.0,91,0.00,,,0.00,,2013-02-14 10:02:00,
2013-02-14 04:11:00,38.0,36.0,30.07,WSW,249,1.0,3.0,92,0.00,,,0.00,,2013-02-14 10:11:00,
2013-02-14 04:21:00,38.0,36.0,30.07,WSW,249,1.0,3.0,92,0.00,,,0.00,,2013-02-14 10:21:00,
2013-02-14 04:31:00,38.0,36.0,30.07,WSW,249,0.0,2.0,93,0.00,,,0.00,,2013-02-14 10:31:00,
2013-02-14 04:42:00,38.0,36.0,30.07,WSW,249,0.0,2.0,93,0.00,,,0.00,,2013-02-14 10:42:00,
2013-02-14 04:52:00,38.0,36.0,30.07,SW,234,1.0,3.0,92,0.00,,,0.00,,2013-02-14 10:52:00,
2013-02-14 05:02:00,38.0,36.0,30.08,SSW,193,1.0,3.0,93,0.00,,,0.00,,2013-02-14 11:02:00,
2013-02-14 05:11:00,38.0,36.0,30.08,SSW,193,1.0,3.0,93,0.00,,,0.00,,2013-02-14 11:11:00,
2013-02-14 05:21:00,37.0,35.0,30.08,SSW,193,1.0,3.0,94,0.00,,,0.00,,2013-02-14 11:21:00,
2013-02-14 05:32:00,37.0,35.0,30.08,SSW,193,1.0,3.0,94,0.00,,,0.00,,2013-02-14 11:32:00,
2013-02-14 05:42:00,37.0,35.0,30.08,SSW,193,1.0,3.0,94,0.00,,,0.00,,2013-02-14 11:42:00,
2013-02-14 05:52:00,37.0,36.0,30.09,SSW,193,0.0,1.0,95,0.00,,,0.00,,2013-02-14 11:52:00,
2013-02-14 06:02:00,37.0,36.0,30.09,SSW,193,1.0,2.0,95,0.00,,,0.00,,2013-02-14 12:02:00,
2013-02-14 06:11:00,37.0,36.0,30.09,SSW,193,1.0,2.0,95,0.00,,,0.00,,2013-02-14 12:11:00,
2013-02-14 06:22:00,36.0,35.0,30.10,SSW,193,2.0,3.0,95,0.00,,,0.00,,2013-02-14 12:22:00,
2013-02-14 06:32:00,36.0,35.0,30.10,SSW,193,1.0,3.0,95,0.00,,,0.00,,2013-02-14 12:32:00,
2013-02-14 06:42:00,36.0,35.0,30.10,SSW,193,1.0,3.0,95,0.00,,,0.00,,2013-02-14 12:42:00,
2013-02-14 06:53:00,36.0,35.0,30.10,SSW,194,0.0,0.0,96,0.00,,,0.00,,2013-02-14 12:53:00,
2013-02-14 07:02:00,36.0,35.0,30.11,SW,227,1.0,3.0,95,0.01,,,0.01,,2013-02-14 13:02:00,
2013-02-14 07:11:00,36.0,35.0,30.11,SW,227,1.0,3.0,95,0.01,,,0.01,,2013-02-14 13:11:00,
2013-02-14 07:21:00,36.0,35.0,30.10,SSW,209,2.0,3.0,96,0.01,,,0.01,,2013-02-14 13:21:00,
2013-02-14 07:31:00,37.0,36.0,30.11,SW,232,1.0,3.0,96,0.01,,,0.01,,2013-02-14 13:31:00,
2013-02-14 07:41:00,37.0,36.0,30.11,SW,232,1.0,3.0,96,0.01,,,0.01,,2013-02-14 13:41:00,
2013-02-14 07:51:00,37.0,36.0,30.11,SW,232,1.0,3.0,96,0.01,,,0.01,,2013-02-14 13:51:00,
2013-02-14 08:01:00,37.0,36.0,30.11,West,277,1.0,3.0,96,0.00,,,0.01,,2013-02-14 14:01:00,
2013-02-14 08:11:00,37.0,36.0,30.11,West,277,1.0,3.0,96,0.00,,,0.01,,2013-02-14 14:11:00,
2013-02-14 08:21:00,38.0,37.0,30.11,WNW,290,2.0,4.0,96,0.00,,,0.01,,2013-02-14 14:21:00,
2013-02-14 08:31:00,40.0,38.0,30.12,WSW,248,3.0,5.0,94,0.00,,,0.01,,2013-02-14 14:31:00,
2013-02-14 08:41:00,40.0,38.0,30.12,WSW,248,3.0,5.0,94,0.00,,,0.01,,2013-02-14 14:41:00,
2013-02-14 08:52:00,41.0,39.0,30.12,SW,221,4.0,6.0,91,0.00,,,0.01,,2013-02-14 14:52:00,
2013-02-14 09:01:00,42.0,40.0,30.12,WSW,242,3.0,7.0,91,0.00,,,0.01,,2013-02-14 15:01:00,
2013-02-14 09:11:00,42.0,40.0,30.12,WSW,242,3.0,7.0,91,0.00,,,0.01,,2013-02-14 15:11:00,
2013-02-14 09:21:00,42.0,39.0,30.12,SW,236,3.0,5.0,89,0.00,,,0.01,,2013-02-14 15:21:00,
2013-02-14 09:32:00,44.0,41.0,30.13,WSW,243,3.0,5.0,88,0.00,,,0.01,,2013-02-14 15:32:00,
2013-02-14 09:41:00,44.0,41.0,30.13,WSW,243,3.0,5.0,88,0.00,,,0.01,,2013-02-14 15:41:00,
2013-02-14 09:52:00,45.0,41.0,30.13,West,269,3.0,5.0,86,0.00,,,0.01,,2013-02-14 15:52:00,
2013-02-14 10:01:00,47.0,41.0,30.13,West,276,5.0,9.0,81,0.00,,,0.01,,2013-02-14 16:01:00,
2013-02-14 10:11:00,47.0,41.0,30.13,West,276,5.0,9.0,81,0.00,,,0.01,,2013-02-14 16:11:00,
2013-02-14 10:21:00,48.0,40.0,30.14,West,276,7.0,10.0,73,0.00,,,0.01,,2013-02-14 16:21:00,
2013-02-14 10:32:00,49.0,41.0,30.13,WNW,294,6.0,9.0,73,0.00,,,0.01,,2013-02-14 16:32:00,
2013-02-14 10:41:00,49.0,41.0,30.13,WNW,294,6.0,9.0,73,0.00,,,0.01,,2013-02-14 16:41:00,
2013-02-14 10:51:00,49.0,41.0,30.13,WSW,257,5.0,11.0,73,0.00,,,0.01,,2013-02-14 16:51:00,
2013-02-14 11:01:00,50.0,41.0,30.13,NNW,329,2.0,9.0,70,0.00,,,0.01,,2013-02-14 17:01:00,
2013-02-14 11:11:00,50.0,41.0,30.13,NNW,329,2.0,9.0,70,0.00,,,0.01,,2013-02-14 17:11:00,
2013-02-14 11:21:00,51.0,41.0,30.13,West,273,2.0,7.0,69,0.00,,,0.01,,2013-02-14 17:21:00,
2013-02-14 11:32:00,51.0,41.0,30.13,WSW,254,4.0,7.0,68,0.00,,,0.01,,2013-02-14 17:32:00,
2013-02-14 11:42:00,51.0,41.0,30.13,WSW,254,4.0,7.0,68,0.00,,,0.01,,2013-02-14 17:42:00,
2013-02-14 11:52:00,52.0,43.0,30.12,WSW,249,3.0,7.0,70,0.00,,,0.01,,2013-02-14 17:52:00,
2013-02-14 12:01:00,52.0,42.0,30.12,SW,229,1.0,9.0,68,0.00,,,0.01,,2013-02-14 18:01:00,
2013-02-14 12:11:00,52.0,42.0,30.12,SW,229,1.0,9.0,68,0.00,,,0.01,,2013-02-14 18:11:00,
2013-02-14 12:23:00,53.0,43.0,30.12,SSW,202,3.0,8.0,68,0.00,,,0.01,,2013-02-14 18:23:00,
2013-02-14 12:32:00,53.0,44.0,30.11,WSW,257,3.0,6.0,72,0.00,,,0.01,,2013-02-14 18:32:00,
2013-02-14 12:42:00,53.0,44.0,30.11,WSW,257,3.0,6.0,72,0.00,,,0.01,,2013-02-14 18:42:00,
2013-02-14 12:51:00,54.0,43.0,30.11,SSW,210,2.0,8.0,66,0.00,,,0.01,,2013-02-14 18:51:00,
2013-02-14 13:02:00,54.0,42.0,30.10,WSW,238,6.0,10.0,63,0.00,,,0.01,,2013-02-14 19:02:00,
2013-02-14 13:11:00,54.0,42.0,30.10,WSW,238,6.0,10.0,63,0.00,,,0.01,,2013-02-14 19:11:00,
2013-02-14 13:21:00,55.0,43.0,30.09,WSW,243,4.0,7.0,65,0.00,,,0.01,,2013-02-14 19:21:00,
2013-02-14 13:31:00,55.0,43.0,30.09,SW,218,4.0,9.0,63,0.00,,,0.01,,2013-02-14 19:31:00,
2013-02-14 13:41:00,55.0,43.0,30.09,SW,218,4.0,9.0,63,0.00,,,0.01,,2013-02-14 19:41:00,
2013-02-14 13:51:00,56.0,43.0,30.08,SE,137,1.0,5.0,61,0.00,,,0.01,,2013-02-14 19:51:00,
2013-02-14 14:01:00,56.0,42.0,30.07,SW,217,3.0,10.0,60,0.00,,,0.01,,2013-02-14 20:01:00,
2013-02-14 14:11:00,56.0,40.0,30.07,WSW,247,1.0,8.0,55,0.00,,,0.01,,2013-02-14 20:11:00,
2013-02-14 14:21:00,56.0,40.0,30.07,WSW,247,1.0,8.0,55,0.00,,,0.01,,2013-02-14 20:21:00,
2013-02-14 14:32:00,57.0,42.0,30.06,WSW,255,2.0,7.0,58,0.00,,,0.01,,2013-02-14 20:32:00,
2013-02-14 14:41:00,57.0,42.0,30.06,WSW,255,2.0,7.0,58,0.00,,,0.01,,2013-02-14 20:41:00,
2013-02-14 14:52:00,57.0,41.0,30.06,South,169,5.0,9.0,54,0.00,,,0.01,,2013-02-14 20:52:00,
2013-02-14 15:02:00,58.0,41.0,30.06,SSW,211,0.0,4.0,54,0.00,,,0.01,,2013-02-14 21:02:00,
2013-02-14 15:11:00,58.0,41.0,30.06,SSW,211,0.0,4.0,54,0.00,,,0.01,,2013-02-14 21:11:00,
2013-02-14 15:21:00,58.0,41.0,30.06,SW,215,3.0,10.0,53,0.00,,,0.01,,2013-02-14 21:21:00,
2013-02-14 15:31:00,58.0,40.0,30.05,WSW,257,4.0,10.0,51,0.00,,,0.01,,2013-02-14 21:31:00,
2013-02-14 15:42:00,58.0,40.0,30.05,WSW,257,4.0,10.0,51,0.00,,,0.01,,2013-02-14 21:42:00,
2013-02-14 15:51:00,58.0,41.0,30.05,WSW,246,3.0,6.0,54,0.00,,,0.01,,2013-02-14 21:51:00,
2013-02-14 16:02:00,58.0,40.0,30.05,WSW,254,5.0,8.0,52,0.00,,,0.01,,2013-02-14 22:02:00,
2013-02-14 16:11:00,58.0,40.0,30.05,WSW,254,5.0,8.0,52,0.00,,,0.01,,2013-02-14 22:11:00,
2013-02-14 16:21:00,58.0,39.0,30.05,SW,215,1.0,6.0,50,0.00,,,0.01,,2013-02-14 22:21:00,
2013-02-14 16:31:00,58.0,40.0,30.05,SW,222,5.0,8.0,51,0.00,,,0.01,,2013-02-14 22:31:00,
2013-02-14 16:42:00,58.0,40.0,30.05,SW,222,5.0,8.0,51,0.00,,,0.01,,2013-02-14 22:42:00,
2013-02-14 16:51:00,58.0,39.0,30.06,WSW,248,5.0,9.0,50,0.00,,,0.01,,2013-02-14 22:51:00,
2013-02-14 17:01:00,58.0,38.0,30.06,SW,234,3.0,6.0,47,0.00,,,0.01,,2013-02-14 23:01:00,
2013-02-14 17:11:00,58.0,38.0,30.06,SW,234,3.0,6.0,47,0.00,,,0.01,,2013-02-14 23:11:00,
2013-02-14 17:21:00,58.0,39.0,30.06,WSW,238,3.0,7.0,50,0.00,,,0.01,,2013-02-14 23:21:00,
2013-02-14 17:32:00,58.0,38.0,30.06,SW,225,2.0,4.0,48,0.00,,,0.01,,2013-02-14 23:32:00,
2013-02-14 17:41:00,58.0,38.0,30.06,SW,225,2.0,4.0,48,0.00,,,0.01,,2013-02-14 23:41:00,
2013-02-14 17:52:00,57.0,38.0,30.06,SW,227,2.0,4.0,49,0.00,,,0.01,,2013-02-14 23:52:00,
2013-02-14 18:01:00,56.0,40.0,30.06,SW,226,1.0,2.0,55,0.00,,,0.01,,2013-02-15 00:01:00,
2013-02-14 18:11:00,56.0,40.0,30.06,SW,226,1.0,2.0,55,0.00,,,0.01,,2013-02-15 00:11:00,
2013-02-14 18:22:00,55.0,41.0,30.06,SW,226,0.0,1.0,60,0.00,,,0.01,,2013-02-15 00:22:00,
2013-02-14 18:32:00,54.0,42.0,30.07,SW,226,0.0,0.0,64,0.00,,,0.01,,2013-02-15 00:32:00,
2013-02-14 18:42:00,54.0,42.0,30.07,SW,226,0.0,0.0,64,0.00,,,0.01,,2013-02-15 00:42:00,
2013-02-14 18:51:00,53.0,42.0,30.07,SSW,198,1.0,3.0,65,0.00,,,0.01,,2013-02-15 00:51:00,
2013-02-14 19:02:00,54.0,44.0,30.06,SSE,157,2.0,4.0,68,0.00,,,0.01,,2013-02-15 01:02:00,
2013-02-14 19:11:00,54.0,44.0,30.06,SSE,157,2.0,4.0,68,0.00,,,0.01,,2013-02-15 01:11:00,
2013-02-14 19:21:00,53.0,44.0,30.06,SSE,158,1.0,3.0,72,0.00,,,0.01,,2013-02-15 01:21:00,
2013-02-14 19:31:00,52.0,45.0,30.07,South,176,2.0,3.0,76,0.00,,,0.01,,2013-02-15 01:31:00,
2013-02-14 19:41:00,52.0,45.0,30.07,South,176,2.0,3.0,76,0.00,,,0.01,,2013-02-15 01:41:00,
2013-02-14 19:51:00,51.0,44.0,30.06,South,176,2.0,4.0,78,0.00,,,0.01,,2013-02-15 01:51:00,
2013-02-14 20:01:00,51.0,44.0,30.07,South,176,0.0,2.0,76,0.00,,,0.01,,2013-02-15 02:01:00,
2013-02-14 20:11:00,51.0,44.0,30.07,South,176,0.0,2.0,76,0.00,,,0.01,,2013-02-15 02:11:00,
2013-02-14 20:21:00,50.0,43.0,30.07,South,176,3.0,5.0,77,0.00,,,0.01,,2013-02-15 02:21:00,
2013-02-14 20:31:00,51.0,44.0,30.07,South,169,0.0,5.0,76,0.00,,,0.01,,2013-02-15 02:31:00,
2013-02-14 20:41:00,51.0,44.0,30.07,South,169,0.0,5.0,76,0.00,,,0.01,,2013-02-15 02:41:00,
2013-02-14 20:52:00,48.0,43.0,30.07,South,169,0.0,0.0,83,0.00,,,0.01,,2013-02-15 02:52:00,
2013-02-14 21:02:00,48.0,43.0,30.08,South,169,0.0,0.0,84,0.00,,,0.01,,2013-02-15 03:02:00,
2013-02-14 21:11:00,48.0,43.0,30.08,South,169,0.0,0.0,84,0.00,,,0.01,,2013-02-15 03:11:00,
2013-02-14 21:22:00,48.0,43.0,30.08,South,169,2.0,3.0,82,0.00,,,0.01,,2013-02-15 03:22:00,
2013-02-14 21:32:00,48.0,43.0,30.08,South,171,2.0,4.0,82,0.00,,,0.01,,2013-02-15 03:32:00,
2013-02-14 21:42:00,48.0,43.0,30.08,South,171,2.0,4.0,82,0.00,,,0.01,,2013-02-15 03:42:00,
2013-02-14 21:51:00,48.0,43.0,30.08,South,178,2.0,4.0,83,0.00,,,0.01,,2013-02-15 03:51:00,
2013-02-14 22:01:00,47.0,42.0,30.09,South,179,2.0,4.0,82,0.00,,,0.01,,2013-02-15 04:01:00,
2013-02-14 22:11:00,47.0,42.0,30.09,South,179,2.0,4.0,82,0.00,,,0.01,,2013-02-15 04:11:00,
2013-02-14 22:21:00,47.0,42.0,30.08,South,179,1.0,3.0,82,0.00,,,0.01,,2013-02-15 04:21:00,
2013-02-14 22:32:00,47.0,42.0,30.08,South,179,0.0,0.0,82,0.00,,,0.01,,2013-02-15 04:32:00,
2013-02-14 22:42:00,47.0,42.0,30.08,South,179,0.0,0.0,82,0.00,,,0.01,,2013-02-15 04:42:00,
2013-02-14 22:52:00,46.0,41.0,30.09,South,179,0.0,2.0,84,0.00,,,0.01,,2013-02-15 04:52:00,
2013-02-14 23:02:00,45.0,41.0,30.09,South,179,0.0,1.0,87,0.00,,,0.01,,2013-02-15 05:02:00,
2013-02-14 23:12:00,45.0,41.0,30.09,South,179,0.0,1.0,87,0.00,,,0.01,,2013-02-15 05:12:00,
2013-02-14 23:22:00,45.0,41.0,30.09,South,179,0.0,1.0,87,0.00,,,0.01,,2013-02-15 05:22:00,
2013-02-14 23:32:00,45.0,42.0,30.09,South,179,1.0,3.0,88,0.00,,,0.01,,2013-02-15 05:32:00,
2013-02-14 23:41:00,45.0,42.0,30.09,South,179,1.0,3.0,88,0.00,,,0.01,,2013-02-15 05:41:00,
2013-02-14 23:52:00,45.0,41.0,30.09,South,179,1.0,2.0,86,0.00,,,0.01,,2013-02-15 05:52:00,